TimeEST,TemperatureF,Dew PointF,Humidity,Sea Level PressureIn,VisibilityMPH,Wind Direction,Wind SpeedMPH,Gust SpeedMPH,PrecipitationIn,Events,Conditions,WindDirDegrees,DateUTC
12:35 AM,40.5,40.5,100,29.96,7.0,WSW,4.6,-,N/A,,Clear,240,2013-01-12 05:35:00
12:55 AM,41.5,41.5,100,29.96,7.0,WSW,4.6,-,N/A,,Clear,240,2013-01-12 05:55:00
1:15 AM,46.2,46.2,100,29.96,10.0,SW,4.6,-,N/A,,Clear,230,2013-01-12 06:15:00
1:35 AM,41.7,41.7,100,29.95,10.0,SW,3.5,-,N/A,,Clear,220,2013-01-12 06:35:00
1:55 AM,43.3,43.3,100,29.96,10.0,SW,4.6,-,N/A,,Clear,230,2013-01-12 06:55:00
2:15 AM,47.7,47.7,100,29.96,10.0,SSW,4.6,-,N/A,,Clear,200,2013-01-12 07:15:00
2:35 AM,47.7,47.7,100,29.96,10.0,SW,3.5,-,N/A,,Clear,220,2013-01-12 07:35:00
2:55 AM,47.7,47.7,100,29.97,10.0,SW,3.5,-,N/A,,Scattered Clouds,220,2013-01-12 07:55:00
3:15 AM,47.7,47.7,100,29.98,10.0,WSW,3.5,-,N/A,,Mostly Cloudy,250,2013-01-12 08:15:00
3:35 AM,45.7,45.7,100,29.98,1.5,SW,4.6,-,N/A,,Mostly Cloudy,230,2013-01-12 08:35:00
3:55 AM,41.0,41.0,100,29.98,0.2,WSW,3.5,-,N/A,Fog,Fog,240,2013-01-12 08:55:00
4:15 AM,46.9,46.9,100,29.98,0.5,West,3.5,-,N/A,Fog,Fog,260,2013-01-12 09:15:00
4:35 AM,42.1,42.1,100,29.98,0.2,SW,3.5,-,N/A,Fog,Fog,230,2013-01-12 09:35:00
4:55 AM,44.6,44.6,100,29.97,0.2,SW,3.5,-,N/A,Fog,Fog,230,2013-01-12 09:55:00
5:15 AM,44.8,44.8,100,29.97,0.5,WSW,3.5,-,N/A,Fog,Fog,250,2013-01-12 10:15:00
5:35 AM,47.7,47.7,100,29.97,2.0,Calm,Calm,-,N/A,,Overcast,0,2013-01-12 10:35:00
5:55 AM,47.7,47.7,100,29.98,2.0,SW,3.5,-,N/A,,Overcast,230,2013-01-12 10:55:00
6:15 AM,49.3,49.3,100,29.98,4.0,SW,3.5,-,N/A,,Overcast,220,2013-01-12 11:15:00
6:35 AM,50.0,50.0,100,29.98,0.8,WSW,3.5,-,N/A,,Mostly Cloudy,240,2013-01-12 11:35:00
6:55 AM,50.2,50.2,100,29.99,1.2,SW,4.6,-,N/A,,Overcast,230,2013-01-12 11:55:00
7:15 AM,52.7,52.7,100,30.00,1.2,WSW,3.5,-,N/A,,Overcast,240,2013-01-12 12:15:00
7:35 AM,50.7,50.7,100,30.00,0.8,Calm,Calm,-,N/A,,Overcast,0,2013-01-12 12:35:00
7:55 AM,52.7,52.7,100,30.02,3.0,SW,4.6,-,N/A,,Overcast,220,2013-01-12 12:55:00
8:15 AM,54.3,54.3,100,30.03,7.0,SSW,6.9,-,N/A,,Overcast,210,2013-01-12 13:15:00
8:35 AM,55.4,55.4,100,30.03,10.0,SW,8.1,-,N/A,,Overcast,220,2013-01-12 13:35:00
8:55 AM,55.4,55.4,100,30.03,10.0,SW,4.6,-,N/A,,Overcast,220,2013-01-12 13:55:00
9:15 AM,55.4,55.4,100,30.04,7.0,SW,3.5,-,N/A,,Scattered Clouds,230,2013-01-12 14:15:00
9:35 AM,55.4,55.4,100,30.04,7.0,Calm,Calm,-,N/A,,Mostly Cloudy,0,2013-01-12 14:35:00
9:55 AM,55.4,55.4,100,30.04,7.0,Calm,Calm,-,N/A,,Overcast,0,2013-01-12 14:55:00
10:15 AM,55.4,55.4,100,30.03,5.0,Calm,Calm,-,N/A,,Overcast,0,2013-01-12 15:15:00
10:35 AM,56.8,56.8,100,30.03,7.0,Calm,Calm,-,N/A,,Overcast,0,2013-01-12 15:35:00
10:55 AM,57.7,57.7,100,30.04,7.0,SSW,3.5,-,N/A,,Overcast,210,2013-01-12 15:55:00
11:15 AM,59.0,59.0,100,30.03,10.0,SW,5.8,-,N/A,,Overcast,230,2013-01-12 16:15:00
11:35 AM,59.0,58.8,99,30.02,10.0,Calm,Calm,-,N/A,,Overcast,0,2013-01-12 16:35:00
11:55 AM,59.5,59.0,98,30.01,10.0,Calm,Calm,-,N/A,,Overcast,0,2013-01-12 16:55:00
12:15 PM,60.1,59.0,96,30.02,10.0,Calm,Calm,-,N/A,,Overcast,0,2013-01-12 17:15:00
12:55 PM,60.8,59.0,94,30.01,10.0,WSW,8.1,-,N/A,,Overcast,250,2013-01-12 17:55:00
1:15 PM,62.6,59.5,90,30.01,10.0,WSW,5.8,-,N/A,,Mostly Cloudy,240,2013-01-12 18:15:00
1:35 PM,63.1,59.0,86,29.99,10.0,SW,4.6,-,N/A,,Scattered Clouds,230,2013-01-12 18:35:00
1:55 PM,65.3,60.1,83,29.99,10.0,SW,4.6,-,N/A,,Clear,220,2013-01-12 18:55:00
2:15 PM,63.3,58.8,85,30.00,10.0,SW,6.9,-,N/A,,Scattered Clouds,230,2013-01-12 19:15:00
2:35 PM,66.0,60.8,83,29.99,10.0,South,5.8,-,N/A,,Scattered Clouds,190,2013-01-12 19:35:00
2:55 PM,65.3,60.3,84,29.99,10.0,SSW,5.8,-,N/A,,Scattered Clouds,200,2013-01-12 19:55:00
3:15 PM,65.3,59.7,82,29.98,10.0,SSW,10.4,-,N/A,,Mostly Cloudy,200,2013-01-12 20:15:00
3:35 PM,65.3,60.6,85,29.99,10.0,SSW,4.6,-,N/A,,Clear,200,2013-01-12 20:35:00
3:55 PM,62.6,59.0,88,29.98,10.0,South,4.6,-,N/A,,Scattered Clouds,180,2013-01-12 20:55:00
4:15 PM,62.6,58.5,86,29.97,10.0,South,3.5,-,N/A,,Mostly Cloudy,180,2013-01-12 21:15:00
4:35 PM,60.8,58.1,91,29.98,10.0,South,4.6,-,N/A,,Scattered Clouds,170,2013-01-12 21:35:00
4:55 PM,62.6,59.0,88,29.96,10.0,SSE,5.8,-,N/A,,Scattered Clouds,150,2013-01-12 21:55:00
5:15 PM,62.6,59.0,88,29.95,10.0,Calm,Calm,-,N/A,,Mostly Cloudy,0,2013-01-12 22:15:00
5:35 PM,59.5,57.2,92,29.96,10.0,Calm,Calm,-,N/A,,Overcast,0,2013-01-12 22:35:00
5:55 PM,60.1,57.9,93,29.95,10.0,SE,3.5,-,N/A,,Overcast,130,2013-01-12 22:55:00
6:15 PM,60.4,58.1,92,29.94,10.0,ESE,5.8,-,N/A,,Mostly Cloudy,120,2013-01-12 23:15:00
6:35 PM,60.1,58.1,93,29.94,10.0,SE,3.5,-,N/A,,Mostly Cloudy,140,2013-01-12 23:35:00
6:55 PM,61.0,59.7,96,29.93,10.0,SE,6.9,-,N/A,,Overcast,140,2013-01-12 23:55:00
7:15 PM,61.3,60.4,97,29.91,7.0,SSE,8.1,-,N/A,,Overcast,150,2013-01-13 00:15:00
7:35 PM,61.0,61.0,100,29.91,7.0,SSE,5.8,-,N/A,,Overcast,150,2013-01-13 00:35:00
7:55 PM,61.0,61.0,100,29.89,4.0,SE,8.1,-,N/A,,Overcast,140,2013-01-13 00:55:00
8:15 PM,61.0,61.0,100,29.87,7.0,SE,9.2,-,N/A,,Overcast,140,2013-01-13 01:15:00
8:35 PM,61.3,61.3,100,29.88,7.0,South,4.6,-,N/A,,Overcast,170,2013-01-13 01:35:00
8:55 PM,61.7,61.7,100,29.88,10.0,South,6.9,-,N/A,Rain,Rain,180,2013-01-13 01:55:00
9:15 PM,61.5,61.5,100,29.87,7.0,SSE,9.2,-,N/A,Rain,Rain,160,2013-01-13 02:15:00
9:35 PM,62.6,62.6,100,29.86,10.0,South,10.4,-,N/A,Rain,Rain,170,2013-01-13 02:35:00
9:55 PM,62.6,62.6,100,29.85,10.0,South,11.5,-,N/A,,Overcast,190,2013-01-13 02:55:00
10:15 PM,63.9,63.9,100,29.83,10.0,South,11.5,17.3,N/A,,Overcast,190,2013-01-13 03:15:00
10:35 PM,65.3,64.9,99,29.83,10.0,South,13.8,20.7,N/A,,Overcast,180,2013-01-13 03:35:00
10:55 PM,65.3,64.6,98,29.83,10.0,SSW,13.8,18.4,N/A,,Overcast,200,2013-01-13 03:55:00
11:15 PM,65.3,64.4,97,29.83,10.0,South,13.8,19.6,N/A,,Overcast,190,2013-01-13 04:15:00
11:35 PM,65.3,64.4,97,29.83,10.0,SSW,12.7,18.4,N/A,,Overcast,200,2013-01-13 04:35:00
11:55 PM,65.3,64.4,97,29.82,10.0,South,12.7,-,N/A,,Overcast,190,2013-01-13 04:55:00